Wind_Speed
4 4 4 4 5 7 6 4 4 2 3 4 1 2 3 5 3 3 4 4 2 3 6 5 5 5 6 7 7 10 9 8 6 6 4 4 2 3 7 10 11 10 14 16 13 22 27 26 25 22 21 20 19 18 18 17 16 16 15 14 14 13 13 12 11 11 10 9 8 8 7 6 6 6 5 5 5 5 5 5 5 5 6 5 4 4 4 5 4 4 4 2 2 2 0 0 1
3 3 3 3 4 5 3 1 4 2 3 4 1 3 4 2 1 2 6 7 5 4 4 5 6 6 7 8 8 10 7 5 5 7 3 4 2 2 6 10 11 10 14 16 14 21 26 26 25 23 21 21 20 19 18 18 16 16 15 15 15 14 13 12 12 11 10 10 9 8 8 7 7 6 6 5 5 5 5 5 5 5 5 5 4 4 5 5 4 3 3 2 1 1 1 1 1
1 3 3 4 4 5 3 2 4 3 4 3 3 4 3 2 3 5 6 6 5 5 4 5 5 5 7 7 6 7 4 1 3 6 1 2 1 3 6 10 13 12 14 15 14 19 24 25 26 24 22 21 20 20 19 18 17 16 16 16 16 15 13 12 11 11 11 10 9 9 8 8 8 7 7 6 6 5 5 4 5 5 5 5 5 5 5 4 4 4 3 2 1 2 3 4 4
1 2 3 4 3 4 3 3 4 4 4 2 2 5 4 3 4 6 6 6 4 4 4 4 3 2 4 6 5 5 4 4 2 3 2 2 2 2 5 11 15 13 14 16 14 18 21 22 25 26 23 22 21 20 19 18 17 16 16 16 16 15 14 12 11 12 11 11 10 10 10 9 9 8 8 7 6 6 5 5 5 6 5 6 6 5 4 4 3 3 2 2 0 5 5 6 7
0 2 3 5 3 2 3 3 3 4 3 3 3 3 5 4 5 7 6 6 3 3 3 3 3 2 4 6 4 4 4 5 1 1 3 2 1 2 4 10 14 14 14 16 15 17 20 21 23 26 25 22 22 21 20 19 17 16 16 15 15 15 14 12 11 12 12 11 11 11 11 10 10 9 9 8 7 6 5 5 4 5 5 6 6 5 4 3 1 1 0 1 2 7 7 8 9
2 2 2 4 2 2 3 4 3 4 2 3 4 4 6 6 7 7 8 7 1 1 3 3 4 3 5 4 4 5 5 5 2 1 1 0 2 3 5 9 13 13 14 16 16 16 19 21 22 25 27 24 23 22 21 20 18 17 16 15 14 14 14 13 12 12 11 11 11 12 12 11 10 10 9 9 9 7 6 6 5 4 5 5 5 4 2 2 0 0 0 0 3 8 9 10 10
3 2 2 4 2 1 5 4 4 4 2 3 5 6 7 8 8 8 8 6 1 2 2 3 3 6 5 2 4 6 4 4 3 2 2 2 3 2 5 8 11 12 13 16 16 15 17 21 22 24 27 25 24 23 23 21 19 18 17 16 15 15 14 14 14 12 12 12 12 12 12 11 11 10 10 9 10 10 7 8 7 5 6 5 5 4 3 2 1 1 1 1 3 9 9 9 9
4 2 1 3 3 2 5 5 4 4 1 2 5 6 7 8 8 7 8 6 2 0 3 3 2 5 2 1 4 4 5 4 3 4 4 5 4 4 5 7 9 11 13 15 16 15 17 21 22 24 28 27 25 24 23 22 21 20 19 17 16 16 15 15 14 14 13 13 12 13 13 12 11 11 11 11 11 13 10 10 9 6 8 7 6 6 5 4 3 3 2 2 4 9 9 7 5
4 3 1 3 4 3 4 5 4 4 3 4 5 5 6 6 5 5 7 5 3 3 2 1 2 5 3 2 7 2 6 4 4 7 7 8 7 6 5 8 9 10 13 14 15 15 16 21 21 24 29 28 26 25 24 24 22 21 20 19 18 17 16 16 15 15 15 14 14 14 14 13 12 11 11 12 12 13 12 12 10 8 9 9 7 7 7 5 4 4 4 4 6 9 7 4 1
4 2 2 3 3 4 4 4 2 1 2 4 5 6 5 4 4 4 6 5 3 4 1 1 3 8 8 8 8 1 6 4 2 4 5 8 7 6 6 10 10 10 13 14 15 15 16 21 22 24 29 29 27 27 26 25 24 22 22 21 20 18 17 17 17 16 16 16 16 15 14 13 13 12 12 13 12 13 12 12 12 10 9 10 8 8 8 7 6 6 5 5 8 7 4 2 1
3 2 2 3 4 5 4 3 3 3 4 4 4 3 2 2 3 4 4 5 3 5 1 3 4 6 9 9 5 2 6 2 2 1 4 6 6 6 6 9 10 10 13 15 16 16 16 19 21 24 29 30 28 28 26 26 25 24 23 22 20 19 19 18 18 18 17 17 16 15 14 14 12 12 13 13 12 13 12 10 12 12 9 10 8 8 8 8 7 6 6 7 8 5 3 2 1
3 2 2 4 4 4 4 5 5 6 7 5 1 4 2 1 2 4 4 7 5 8 4 6 1 4 7 8 4 4 9 4 4 3 5 4 5 6 6 8 10 11 12 15 17 16 16 16 19 25 29 29 28 27 26 26 26 25 24 23 21 20 20 19 19 19 18 18 17 16 15 14 13 13 13 13 12 13 12 9 12 11 10 10 9 9 9 8 8 7 7 8 7 4 4 2 1
3 1 3 4 3 4 5 6 5 6 7 1 3 6 2 1 3 5 5 8 10 11 4 4 2 5 8 8 6 3 8 6 4 5 5 3 4 7 8 7 10 11 11 15 16 15 15 14 16 23 29 30 28 27 26 25 25 25 24 23 22 21 20 20 20 19 19 18 18 18 17 17 16 16 16 14 13 13 11 10 11 10 10 10 9 9 9 8 8 8 8 8 6 5 4 3 2
3 2 3 4 2 5 6 5 5 5 5 3 5 5 2 3 2 4 6 10 11 7 3 1 4 5 8 7 6 1 5 4 3 4 4 6 6 7 9 9 11 13 12 15 16 15 16 15 16 19 26 28 27 27 26 26 25 25 24 23 23 22 21 21 21 20 19 19 19 19 19 19 18 17 17 16 15 13 12 11 11 11 11 11 10 10 9 9 9 9 9 8 7 6 4 3 2
3 2 3 5 4 6 4 4 5 5 5 1 4 4 2 4 3 4 6 8 9 4 2 3 2 3 6 6 5 4 5 4 2 2 2 6 7 8 10 11 12 15 16 15 16 16 16 17 17 19 22 24 24 24 24 25 26 26 25 25 24 23 22 22 22 21 21 21 20 21 20 20 19 18 18 18 17 15 14 14 12 12 12 12 11 10 10 9 10 9 10 9 7 6 5 3 1
3 3 3 5 5 5 3 3 4 4 4 2 5 4 4 4 5 6 3 3 10 6 4 5 6 7 9 11 9 3 4 3 1 2 2 4 6 7 10 12 11 14 18 17 17 18 18 19 18 20 21 23 23 23 23 23 26 27 27 26 25 25 24 24 23 23 23 22 22 22 22 21 20 20 20 20 20 18 17 16 14 13 12 13 12 11 11 10 10 10 10 9 8 6 4 2 0
2 4 5 5 5 6 3 3 3 3 5 3 4 4 6 5 4 5 1 3 12 12 10 9 8 11 12 15 12 2 5 8 5 4 3 5 6 7 9 11 11 12 16 19 19 19 19 21 21 21 21 23 24 24 24 23 25 27 28 29 28 27 26 26 25 24 24 24 24 24 22 22 21 21 21 21 21 20 19 17 16 14 13 13 13 12 12 11 10 11 11 9 8 5 3 2 1
3 4 5 5 5 5 4 5 6 6 7 7 4 3 6 9 5 3 1 7 12 14 14 12 12 14 17 19 16 10 11 12 7 7 7 8 8 9 9 10 13 13 15 18 20 21 20 22 23 22 22 23 24 24 24 23 24 26 29 30 29 30 29 28 28 26 25 24 24 25 23 21 19 19 19 21 21 21 20 19 17 15 13 14 15 14 12 11 11 12 12 10 7 5 4 3 2
5 4 6 6 7 7 5 7 9 8 9 10 10 9 9 10 9 3 6 12 11 14 14 12 14 15 17 18 18 16 14 13 10 11 12 12 11 11 11 11 13 14 15 17 21 24 23 22 24 25 24 24 24 24 23 23 24 24 27 27 27 29 29 30 30 27 25 23 24 26 24 20 18 16 16 20 21 20 19 18 18 16 14 15 16 14 12 11 11 14 13 10 8 7 6 4 4
6 6 6 7 8 9 8 8 9 10 11 12 11 11 11 11 9 6 9 13 12 13 13 12 13 11 11 12 13 14 14 14 12 13 14 15 16 15 14 13 13 15 17 17 19 22 24 24 24 26 25 24 24 25 24 23 24 23 24 25 26 27 26 27 28 27 25 23 25 26 24 21 19 17 17 20 21 19 18 17 18 17 16 17 18 15 12 12 13 15 14 11 10 9 8 6 5
4 6 8 8 7 9 9 9 10 10 9 10 11 12 14 11 7 7 10 12 10 11 13 13 14 13 13 13 12 12 12 13 13 14 15 16 17 17 17 16 15 14 14 16 16 19 25 27 26 26 26 25 25 25 25 24 24 24 23 24 26 25 24 26 25 26 26 26 26 24 23 23 21 18 19 22 21 18 17 17 18 18 17 17 19 16 13 14 16 17 15 13 13 11 9 8 7
5 7 11 12 10 11 10 11 9 6 6 8 11 13 12 9 5 9 12 12 10 11 14 17 18 16 16 15 14 12 11 12 14 15 16 17 18 18 17 17 16 14 13 14 15 18 23 28 28 27 27 28 28 27 25 24 25 24 23 24 25 25 25 25 25 26 27 27 27 25 23 24 23 20 19 22 21 17 16 17 18 19 17 17 19 18 15 18 20 19 17 15 15 12 11 10 9
6 9 11 12 12 12 12 11 4 2 8 10 11 12 12 12 11 12 13 15 15 15 18 20 20 19 18 16 14 13 12 13 15 16 18 18 18 18 17 16 15 14 14 14 16 16 19 25 28 28 28 29 29 28 25 23 25 25 24 25 26 25 24 24 24 26 26 26 28 27 25 25 24 21 18 20 21 17 16 17 17 19 18 17 20 18 16 20 21 20 19 17 16 14 13 11 10
7 10 12 12 12 12 12 12 5 4 10 12 11 13 15 16 14 12 15 17 17 18 19 20 20 19 18 15 14 14 15 15 16 18 19 18 19 19 17 15 14 14 14 15 16 17 19 24 27 29 30 30 31 31 28 25 25 25 25 25 26 25 24 24 25 25 25 26 28 28 27 27 24 21 18 20 20 18 17 17 17 18 17 18 20 18 18 23 23 22 20 19 18 16 13 12 10
11 12 12 12 12 11 11 12 10 9 10 9 12 15 17 18 15 15 19 19 19 20 19 19 17 16 15 14 15 15 15 15 16 18 18 17 18 17 15 14 14 14 16 18 17 18 20 23 27 30 31 32 32 31 31 28 26 26 26 25 25 26 26 24 25 25 24 26 28 29 30 28 23 21 20 20 21 19 17 18 17 18 17 17 19 18 20 26 24 22 22 20 19 15 13 12 11
6 8 10 11 11 12 12 13 12 11 9 8 12 17 18 16 14 13 16 17 17 17 17 16 14 15 14 14 15 15 15 15 15 16 15 14 14 14 14 14 15 16 19 20 19 20 21 22 26 30 31 33 32 31 32 31 28 27 27 27 26 28 28 25 24 25 25 25 28 30 31 29 24 22 22 21 21 21 19 19 18 18 18 17 20 21 23 26 23 23 22 21 18 16 14 13 12
5 8 11 13 15 15 14 15 14 13 11 11 13 18 18 14 11 9 11 13 12 11 12 12 13 15 15 14 14 14 15 15 15 15 14 12 11 13 14 14 17 20 21 22 21 21 22 22 25 28 30 31 31 32 34 33 30 29 28 28 27 27 27 25 24 25 25 26 28 31 33 33 29 23 23 23 22 22 20 20 20 19 19 21 24 26 26 25 23 22 22 21 19 16 15 14 13
8 10 12 15 17 16 15 17 15 12 9 9 12 17 18 14 10 13 15 14 12 10 11 12 14 16 16 16 15 12 13 15 16 14 13 12 12 13 14 14 17 20 22 23 22 21 20 22 24 26 28 30 32 33 35 35 32 31 29 28 28 27 26 26 24 24 25 26 28 32 35 37 34 26 25 27 25 24 23 23 24 22 23 26 27 28 27 25 23 22 22 20 18 17 17 16 15
7 8 11 15 15 15 17 16 11 9 6 4 6 12 14 12 10 15 15 10 9 9 12 14 15 15 15 15 14 12 12 14 15 14 14 15 14 15 15 15 16 17 18 18 18 20 19 20 22 24 26 29 33 33 33 35 32 29 29 28 27 26 26 26 25 24 25 26 29 34 37 38 37 32 29 30 29 26 26 27 28 27 27 28 29 29 29 27 24 23 23 21 19 19 18 18 16
7 8 8 11 12 12 13 9 4 5 5 7 5 7 10 13 12 12 8 5 8 12 15 17 15 14 14 14 13 12 13 13 14 15 16 16 16 16 16 16 15 15 15 12 13 16 17 19 20 21 23 25 30 30 27 29 29 27 27 26 25 25 25 26 26 25 24 25 30 36 38 38 39 36 32 31 31 29 29 30 31 31 30 29 30 31 30 28 27 26 24 22 21 19 18 19 17
8 9 6 6 8 7 7 4 7 4 4 9 7 6 9 15 14 12 8 6 9 14 19 18 15 13 13 13 13 13 12 12 14 16 17 16 15 14 15 15 14 14 14 12 12 14 14 16 19 20 23 24 26 27 24 22 24 24 23 22 23 24 24 24 25 25 24 25 31 36 38 39 40 38 34 33 34 32 31 31 32 32 31 31 31 31 30 29 28 27 25 23 21 19 18 18 16
7 8 6 6 7 8 8 5 9 6 3 10 9 5 8 13 14 13 13 14 14 16 20 19 16 16 15 13 12 12 12 11 13 15 14 13 11 11 13 14 14 13 13 13 12 12 12 14 18 20 22 24 25 26 25 22 20 20 20 20 21 21 23 23 22 23 23 24 30 35 37 40 41 40 37 36 35 33 31 31 32 32 32 32 32 32 31 30 28 27 26 24 23 20 17 17 15
7 7 7 8 8 9 7 4 6 5 3 9 11 7 8 10 14 18 17 18 18 17 20 19 17 17 14 11 10 10 10 10 10 11 15 15 13 14 15 15 15 14 13 13 12 11 11 12 15 18 18 20 21 22 24 22 19 18 18 19 19 20 22 22 20 21 21 23 29 32 34 38 41 41 40 39 37 35 33 32 32 33 34 34 33 33 32 31 29 27 26 25 23 21 19 19 15
6 7 7 9 10 9 8 8 3 5 6 7 10 10 11 11 16 20 19 19 18 16 18 18 16 15 12 10 9 9 9 9 10 15 21 20 18 19 17 17 18 16 14 14 12 10 10 9 10 14 15 15 16 17 18 19 18 17 16 17 17 19 21 21 19 19 20 21 25 28 31 35 39 41 41 40 38 35 33 32 32 33 35 35 34 34 33 31 29 29 29 26 24 22 21 21 17
10 9 8 9 10 10 11 11 5 4 7 7 9 12 13 13 15 17 20 20 17 16 16 16 16 14 11 8 7 8 9 11 14 18 23 22 22 21 19 18 19 18 16 16 14 11 9 8 6 9 11 12 13 14 14 14 15 15 14 14 15 16 17 18 18 17 17 18 20 23 27 31 35 39 40 40 38 35 33 32 31 33 35 35 34 34 33 31 30 29 30 29 25 22 21 21 18
15 13 11 12 11 12 13 14 11 8 10 10 11 13 12 12 13 15 20 20 16 15 15 14 14 11 8 6 6 8 11 13 15 19 22 22 22 21 19 19 19 19 19 19 18 15 11 9 6 5 7 8 9 11 11 12 12 13 13 13 13 14 15 16 16 16 16 15 17 20 25 28 31 35 37 38 38 35 33 32 32 33 35 35 34 35 34 33 33 32 31 31 28 22 19 19 19
16 13 12 13 12 13 13 15 10 3 4 10 11 13 13 12 13 16 19 18 15 15 15 12 11 8 5 5 8 11 12 12 15 19 20 20 21 21 19 19 20 20 21 21 20 18 15 12 8 6 5 5 7 8 9 10 11 11 12 13 13 12 13 14 15 16 16 15 16 20 23 25 27 30 33 35 36 35 33 31 31 32 33 34 35 35 34 33 34 33 31 31 30 27 22 19 21
15 12 12 12 11 12 12 16 11 2 1 9 10 13 15 14 16 17 17 16 14 13 10 9 8 7 5 7 11 13 11 10 14 16 18 20 21 22 20 20 21 21 21 21 21 19 17 15 12 9 6 3 5 6 7 8 9 10 10 10 10 10 10 11 12 12 14 13 15 19 21 23 25 28 30 33 34 34 32 30 29 31 34 33 33 34 32 31 32 32 32 32 31 30 26 24 25
13 10 10 9 9 11 12 12 7 1 1 7 10 12 13 16 20 18 13 12 12 8 6 6 6 6 8 11 12 12 12 12 14 15 17 20 21 22 22 21 21 20 20 21 22 20 19 18 16 13 9 5 5 5 6 6 7 7 7 6 6 7 7 8 9 9 10 10 13 18 20 21 23 25 28 31 33 34 34 31 28 30 33 33 33 33 32 32 34 33 34 34 31 28 24 25 29
9 8 8 8 9 9 8 4 1 0 5 8 11 11 11 15 17 13 9 10 8 3 2 5 8 9 13 14 13 13 14 14 14 15 16 17 20 23 23 23 22 21 21 23 24 23 21 21 19 16 12 9 7 6 5 5 4 4 5 5 4 5 5 5 7 9 11 13 14 19 22 22 23 24 26 29 32 34 35 33 30 30 33 34 34 34 33 35 36 36 36 35 32 27 22 24 30
9 9 9 10 11 11 11 7 5 7 7 5 8 9 7 7 8 7 6 7 7 2 5 9 12 12 13 14 13 13 13 13 14 15 15 15 19 22 24 24 23 23 25 26 26 25 23 23 22 18 15 13 11 9 7 6 4 2 3 6 5 6 7 6 6 8 11 14 15 18 21 24 25 25 26 28 31 34 34 34 32 31 33 35 35 35 35 36 37 38 37 34 34 32 26 25 28
8 8 9 11 12 12 13 11 7 8 4 2 3 7 5 2 4 7 4 6 8 3 9 12 13 12 11 11 12 12 11 11 12 13 13 13 18 21 24 26 25 26 27 26 25 25 25 25 24 21 18 16 15 12 9 7 6 5 4 4 4 5 7 6 7 7 7 9 11 13 16 19 23 25 27 28 30 33 35 35 34 33 34 35 36 36 34 35 37 38 38 35 35 34 29 26 28
6 3 3 6 8 9 9 8 5 5 4 1 1 6 7 4 8 11 7 9 8 7 12 12 12 10 9 9 10 10 10 10 9 10 11 13 17 20 22 25 26 26 26 25 25 25 26 26 25 23 20 19 18 15 11 8 7 7 6 5 5 6 7 6 5 5 5 5 6 8 10 13 18 21 23 25 27 30 34 36 36 35 36 35 36 35 32 33 37 38 39 37 36 34 31 28 29
4 1 2 3 5 6 5 5 4 5 7 6 6 7 8 6 8 10 10 12 9 9 13 12 10 8 9 10 10 10 10 9 8 9 10 12 16 19 20 23 24 25 25 25 26 26 26 27 26 24 21 20 20 17 14 11 9 7 6 6 6 7 8 8 7 5 4 4 4 6 7 9 14 17 19 21 24 27 30 33 36 36 37 36 35 36 33 32 35 37 38 38 36 35 34 31 30
1 3 2 2 3 4 3 4 5 5 7 7 7 8 6 7 5 5 9 12 10 11 12 11 9 7 9 9 10 10 9 10 10 9 10 12 17 20 21 22 22 23 24 24 24 24 25 26 27 25 22 21 21 20 17 14 11 8 7 8 8 8 8 9 8 7 5 4 4 6 7 7 10 14 16 18 20 24 27 30 33 34 36 36 34 36 36 33 33 36 39 39 37 35 35 33 30
1 2 1 1 3 4 4 5 5 5 7 8 8 10 6 7 4 6 6 9 9 11 11 9 9 8 9 8 9 9 8 8 9 9 10 14 18 19 19 20 21 21 21 22 22 23 24 25 26 27 24 22 21 21 18 15 12 10 11 12 12 11 10 10 9 9 8 6 6 6 6 7 8 10 13 16 18 21 24 27 31 33 34 35 33 34 36 34 34 36 39 41 40 36 34 34 32
1 1 3 4 6 6 4 5 3 4 8 9 10 15 9 6 3 5 3 3 6 9 10 9 9 9 9 8 7 8 7 8 7 8 11 15 18 18 17 18 19 20 20 21 21 22 23 24 25 26 25 23 22 21 19 16 14 14 15 14 13 12 12 12 11 11 11 10 9 8 7 7 8 8 10 13 16 19 21 23 27 29 31 31 31 33 36 36 36 37 38 40 41 39 36 35 34
2 3 3 5 6 4 4 4 3 5 8 6 6 14 12 7 3 2 2 4 4 6 10 11 10 9 9 8 6 7 7 7 7 8 11 13 14 15 16 17 17 19 20 21 21 21 21 23 23 24 25 24 23 22 20 18 17 18 18 16 14 13 12 12 11 12 12 11 11 10 9 8 8 8 9 11 14 18 20 20 22 25 26 27 29 33 36 36 36 36 37 39 40 41 40 37 36
3 3 3 4 6 4 6 5 4 6 5 1 4 6 9 8 6 5 3 7 7 8 10 11 12 10 9 7 6 7 7 7 8 9 10 10 10 12 14 15 16 17 19 19 20 20 20 22 23 24 24 24 23 23 23 23 23 22 20 17 15 13 12 12 11 11 11 11 11 11 10 10 9 9 9 11 13 16 19 19 21 23 23 25 27 30 33 34 34 34 36 38 39 41 42 40 39
6 4 4 4 6 7 8 8 7 8 4 3 2 3 5 7 8 7 6 10 10 10 11 11 12 11 9 7 7 8 8 9 9 9 9 9 10 12 13 14 15 16 17 18 18 19 19 21 23 23 24 24 24 24 25 25 25 25 23 20 17 14 13 12 11 11 11 12 11 12 12 11 12 11 11 11 12 15 18 19 21 23 23 24 26 28 30 32 33 33 34 36 38 40 42 42 42
6 4 4 6 6 7 9 8 7 9 7 2 2 2 4 5 0 4 8 11 10 10 11 11 11 10 8 8 9 9 9 9 8 8 9 9 11 12 13 13 14 15 17 17 18 19 19 19 21 22 23 24 25 25 25 25 24 24 24 23 21 18 16 14 11 11 11 11 11 12 12 12 13 13 13 12 11 13 16 19 20 22 23 23 25 27 29 30 32 33 34 35 37 38 39 41 42
3 2 3 5 5 6 7 8 8 10 10 7 5 4 5 5 5 10 9 10 11 10 10 10 10 9 8 8 9 8 8 8 7 7 8 9 11 12 12 13 14 15 16 17 18 19 19 19 20 21 21 22 22 23 23 24 24 24 25 25 24 22 21 18 15 15 14 12 12 11 12 12 13 13 13 14 12 13 16 19 20 21 23 24 24 26 27 29 31 33 34 34 35 37 38 39 41
1 2 3 2 2 4 6 8 9 9 11 9 7 7 8 7 4 11 10 10 10 9 9 9 9 9 9 8 8 7 7 7 7 7 7 9 11 12 12 13 14 15 15 17 17 17 18 19 19 20 20 20 21 21 20 21 22 22 23 26 26 25 24 21 18 18 17 15 13 12 12 12 12 13 14 14 14 15 18 19 20 21 22 24 24 25 27 28 30 31 33 34 35 35 37 39 39
1 3 2 3 1 2 4 8 8 9 12 8 8 12 11 8 4 6 10 9 9 8 8 9 8 8 8 7 7 6 6 6 7 7 7 8 10 12 12 13 14 15 15 15 16 16 16 16 17 19 19 19 19 19 18 18 18 19 20 22 24 25 26 24 21 20 17 17 16 14 13 13 13 13 13 14 15 16 17 19 20 21 22 23 24 25 27 28 28 30 32 33 34 33 34 38 39
3 3 2 2 4 5 4 6 6 9 11 8 10 14 11 9 8 3 6 10 10 8 8 8 7 7 7 6 6 5 5 4 5 6 6 6 8 10 11 12 13 13 14 14 14 15 15 15 16 16 17 17 17 17 18 17 16 16 17 19 20 21 23 23 23 22 20 19 19 17 16 15 14 14 13 13 14 15 15 16 18 19 21 22 23 24 26 27 28 29 31 31 33 33 33 35 37
2 3 1 2 3 4 6 5 5 8 10 9 10 10 8 7 7 5 3 11 12 9 8 7 6 6 5 4 4 3 4 3 3 4 4 4 6 7 7 8 9 11 12 12 12 14 14 14 15 15 16 17 18 19 19 18 17 16 16 17 19 19 21 22 22 22 21 21 21 20 19 19 17 15 14 14 14 14 15 15 16 17 19 20 21 23 24 25 27 29 30 30 31 32 33 35 35
4 4 5 4 3 2 4 5 5 7 9 9 9 9 8 4 5 7 7 9 8 8 8 6 5 5 4 4 3 2 3 3 3 3 3 4 4 5 5 5 5 6 8 8 9 11 12 13 13 15 16 17 19 21 20 19 19 19 17 17 18 18 19 20 21 22 23 22 22 21 21 21 20 18 17 16 15 14 15 15 16 17 18 19 20 22 23 24 25 27 28 29 30 31 33 34 35
6 6 6 7 7 5 5 7 7 6 8 8 9 11 7 2 5 7 7 7 6 6 7 6 5 5 4 4 3 3 3 3 3 4 3 4 4 5 5 5 5 5 6 6 6 8 9 11 11 13 15 16 18 21 21 19 19 20 19 19 19 19 20 21 21 22 24 24 25 24 24 23 22 21 20 19 17 16 15 15 15 17 18 19 20 21 22 23 24 26 26 28 29 30 31 33 34
Wind_Direction
354 338 331 321 303 292 278 279 283 217 247 271 284 336 68 55 354 310 355 21 14 52 19 328 308 290 283 307 321 319 298 284 311 323 348 99 125 141 179 209 187 159 170 169 174 190 191 191 188 185 185 183 184 185 186 187 190 191 188 186 185 182 181 182 181 182 183 184 184 184 186 183 183 181 179 176 178 180 179 177 172 164 152 155 160 151 147 136 129 125 122 134 131 105 78 8 59
351 323 302 290 280 278 296 320 291 265 261 276 86 38 37 60 286 350 12 3 358 8 345 313 300 277 272 287 288 288 283 260 285 315 13 129 173 153 196 205 183 164 169 171 171 187 189 192 191 187 188 186 188 189 189 190 190 192 188 187 187 185 184 184 186 187 187 188 186 187 191 190 187 184 181 176 178 179 179 175 165 158 154 154 154 151 141 129 126 118 125 144 148 256 281 320 328
345 308 277 266 250 252 287 247 271 306 293 305 69 64 30 333 357 8 358 351 353 343 315 299 283 268 262 254 269 289 297 289 296 310 336 157 232 160 201 202 181 163 169 174 170 181 185 192 193 189 191 189 192 192 193 193 191 192 191 192 193 194 192 189 190 189 190 190 190 192 196 194 189 182 175 172 168 162 160 160 156 153 155 155 147 148 138 131 130 115 121 136 137 286 293 310 320
39 293 267 271 247 234 264 251 277 305 295 321 45 74 53 346 356 345 345 347 336 316 296 297 277 187 257 272 314 299 286 321 14 332 310 81 41 138 202 205 183 165 170 176 172 179 181 193 196 191 192 193 195 195 197 196 194 194 194 196 196 199 198 195 193 192 192 192 195 197 199 194 188 180 168 165 160 156 155 148 157 158 152 154 146 144 141 131 131 127 121 109 307 290 294 303 313
8 268 259 269 273 278 285 277 275 271 294 345 326 36 30 352 344 335 337 327 318 306 284 274 283 141 251 283 308 296 331 336 37 331 311 57 79 190 212 208 184 170 174 176 176 177 183 198 200 193 192 195 198 199 200 199 199 199 199 201 199 200 201 200 198 199 196 194 200 200 201 197 186 176 168 167 165 163 157 144 153 167 156 157 151 142 144 126 134 232 260 96 285 287 296 304 309
248 218 223 252 281 338 279 268 263 260 322 4 304 333 352 340 343 335 324 320 337 297 272 251 288 295 266 251 228 266 336 331 325 298 272 9 246 217 221 208 181 176 180 177 179 177 186 201 202 198 194 195 200 201 202 201 202 204 205 206 205 205 203 205 202 204 202 200 206 204 204 200 185 176 173 173 178 173 156 152 159 172 166 167 162 146 153 139 120 217 288 248 281 286 295 303 306
258 212 188 224 222 251 260 269 284 287 34 34 307 321 327 328 338 326 319 326 83 151 212 244 300 295 276 223 227 237 260 275 309 304 187 236 260 224 220 200 180 183 183 179 181 180 193 201 202 203 197 195 200 202 204 203 205 206 210 210 211 210 208 210 206 206 206 208 208 206 207 198 185 178 180 185 193 194 179 173 172 182 189 189 188 183 198 196 215 200 227 225 272 287 294 299 303
255 256 181 247 227 203 260 274 280 290 13 360 303 304 310 322 331 320 318 318 312 161 204 232 259 276 267 150 263 182 190 240 243 256 249 252 258 262 228 188 185 187 183 182 183 183 199 205 202 204 199 197 199 201 206 206 207 207 212 213 214 214 212 214 211 208 207 209 205 204 205 194 188 184 193 203 203 205 209 201 185 192 207 207 208 203 202 212 224 211 223 208 259 287 293 295 303
225 250 199 264 257 228 262 266 266 279 288 306 300 294 298 306 317 315 313 310 311 320 261 249 224 263 315 299 284 168 157 197 232 259 264 263 261 263 232 187 190 188 184 184 186 187 200 208 205 206 201 199 199 201 205 208 208 208 213 214 215 216 213 215 214 212 208 207 204 203 202 193 193 191 203 215 212 213 222 225 208 202 213 215 217 203 194 204 206 200 207 211 257 284 286 283 295
205 241 252 262 268 261 259 260 271 292 295 306 298 299 306 307 313 305 305 315 326 315 334 64 236 247 293 303 291 247 138 161 243 280 262 265 260 245 225 197 194 188 188 186 189 190 200 211 208 208 204 201 202 202 206 210 210 209 212 215 216 215 213 214 214 213 210 207 204 204 200 194 197 198 213 222 226 230 233 240 221 205 212 215 214 200 196 199 194 199 198 218 257 272 260 236 145
213 199 266 270 255 267 284 305 320 324 317 305 293 309 343 9 320 286 283 301 301 296 249 156 245 256 278 285 285 119 124 142 108 112 245 264 254 225 214 204 200 193 194 194 196 193 201 214 212 210 205 202 204 206 209 211 211 211 213 215 215 214 213 213 213 212 210 207 203 202 199 200 209 210 222 230 236 243 242 239 215 202 210 214 209 196 194 191 191 198 192 222 251 244 208 183 132
244 182 223 265 269 288 315 317 316 315 308 290 272 100 78 76 277 288 303 305 300 296 263 175 279 334 289 284 297 128 128 116 122 186 248 264 249 218 201 203 207 202 201 205 204 197 198 209 212 210 205 204 206 209 212 213 213 212 213 214 214 213 212 212 214 213 209 205 200 198 199 206 214 212 220 233 237 245 245 227 204 199 207 210 202 194 187 186 192 190 194 227 238 210 193 177 148
258 252 244 268 295 298 304 304 303 306 302 302 96 105 107 235 257 303 321 309 298 299 300 147 338 323 286 291 296 214 130 111 152 220 247 212 211 211 202 200 210 205 207 212 207 201 198 199 204 206 205 205 208 211 214 215 214 214 213 213 213 213 212 212 212 211 208 203 201 202 205 208 212 214 221 232 234 242 238 214 204 202 207 208 200 194 188 191 192 185 204 230 221 203 197 184 172
270 287 275 278 293 281 284 285 292 297 298 64 91 122 162 244 271 310 303 298 297 312 17 53 322 306 281 275 276 272 111 121 176 216 225 207 204 211 206 199 213 207 207 214 208 205 201 199 198 202 206 207 209 213 216 217 217 216 214 212 213 213 211 209 207 206 205 204 207 210 212 214 218 225 228 229 231 236 223 206 205 206 207 207 203 198 193 195 189 188 216 224 208 203 198 193 182
277 278 265 271 270 268 252 257 292 295 289 17 105 128 196 237 222 256 267 284 301 350 16 277 240 267 296 288 299 60 116 160 155 211 223 226 218 214 214 208 218 213 211 213 209 209 204 202 200 200 206 208 210 212 217 219 219 216 214 213 212 212 207 205 207 207 207 208 212 216 218 219 223 228 229 230 231 231 222 212 205 204 205 203 205 202 196 195 186 199 223 216 204 204 201 199 175
264 271 248 258 265 266 225 236 279 270 297 23 125 142 263 248 194 238 265 274 290 297 266 249 197 234 281 285 295 61 144 201 268 281 241 232 225 218 223 217 219 218 217 214 210 211 206 203 201 201 204 207 209 211 216 219 220 217 214 215 213 211 207 206 210 212 213 213 216 220 222 224 225 228 230 232 233 231 227 221 207 200 202 201 202 199 195 191 188 211 222 211 207 207 207 211 208
242 255 247 255 255 259 243 239 270 284 322 349 151 174 277 289 188 212 344 244 269 275 263 254 227 237 255 263 275 273 237 260 271 264 215 212 216 212 220 214 213 214 217 218 214 211 207 206 203 203 203 205 208 209 213 217 222 220 215 216 215 213 211 210 213 216 218 219 221 224 226 226 225 227 228 229 231 231 229 224 211 200 198 200 199 195 192 187 194 217 217 210 212 210 212 222 248
216 232 243 254 257 270 272 267 291 299 298 300 289 267 279 289 267 195 233 246 254 267 265 259 247 241 247 256 264 257 253 259 244 237 233 226 220 218 216 207 208 210 213 216 216 211 207 208 207 206 205 204 205 207 211 213 220 224 221 218 218 217 216 215 216 218 221 222 225 226 225 223 218 219 221 221 226 228 228 224 214 204 195 199 198 191 187 185 198 215 214 209 210 209 214 223 241
219 245 255 253 262 283 291 282 294 293 290 298 301 297 284 282 287 285 269 272 274 275 274 269 261 251 248 252 251 245 244 244 226 231 246 242 237 237 233 218 209 210 211 212 216 214 208 208 209 208 208 205 204 205 209 212 215 221 222 218 219 221 219 220 220 220 221 220 225 226 221 217 211 208 212 215 219 222 226 223 216 207 194 199 201 192 187 184 196 211 211 208 207 208 212 223 240
228 240 255 257 265 278 275 278 286 283 291 294 294 299 290 281 282 275 268 279 283 278 279 277 277 274 268 266 265 258 247 240 232 233 242 246 247 246 247 239 224 216 214 215 217 214 210 209 209 210 209 205 204 206 208 212 213 215 218 216 217 220 220 220 221 220 221 219 222 223 217 215 210 205 211 214 215 216 219 220 214 205 196 203 206 195 187 187 197 210 209 206 209 209 209 217 231
233 222 247 269 280 281 271 283 286 282 293 291 292 294 286 288 286 263 266 280 279 272 278 286 295 300 296 297 300 291 266 248 244 243 243 248 251 250 250 249 244 235 222 216 210 210 217 217 212 210 209 207 206 206 209 211 212 213 215 214 213 214 215 216 217 217 220 217 217 219 215 214 208 203 212 214 212 209 209 213 208 200 195 202 208 197 192 200 208 213 209 206 211 210 209 214 222
251 233 249 268 276 278 278 290 295 292 299 288 284 283 284 296 282 259 262 268 268 274 285 291 295 298 298 298 298 293 275 259 255 256 253 252 252 252 251 250 249 244 230 218 209 211 221 224 218 211 209 209 208 207 210 212 213 214 213 211 211 212 212 211 212 213 215 214 214 215 212 212 207 202 209 211 208 197 197 203 198 194 191 198 205 196 197 210 213 213 209 207 210 209 210 214 219
252 255 255 265 269 274 283 293 309 305 284 280 282 286 291 286 275 273 267 261 264 272 279 283 288 292 294 293 290 283 272 264 262 261 258 255 254 252 251 251 250 244 233 222 217 213 215 222 222 216 211 210 210 208 209 212 214 215 214 213 211 210 209 208 208 209 211 210 211 211 208 208 203 196 200 203 201 192 192 195 190 193 190 195 202 192 197 211 212 211 208 208 209 209 211 215 218
244 267 269 273 275 275 282 290 288 272 274 276 284 288 284 278 278 283 275 269 271 272 272 275 282 288 290 286 280 276 272 268 264 261 259 257 256 254 253 252 251 246 239 231 225 219 215 222 226 221 216 214 212 210 208 210 213 214 212 212 212 209 208 207 206 206 207 207 209 209 206 206 198 191 194 196 196 193 193 193 189 192 191 194 199 193 199 209 210 209 207 208 209 209 211 215 218
243 260 272 277 276 274 280 284 276 270 272 274 279 275 271 274 281 282 277 276 273 270 270 272 278 283 284 281 276 274 273 270 266 263 260 256 255 257 255 251 250 244 240 237 229 222 219 222 226 224 220 218 215 210 208 209 210 210 210 211 211 210 209 207 205 204 204 205 208 208 205 203 195 191 194 193 194 193 192 192 189 191 191 191 195 195 204 210 208 206 207 208 209 209 210 214 218
257 267 285 290 285 282 282 280 270 264 266 269 272 270 270 278 285 277 268 269 270 265 265 274 282 285 282 278 273 271 269 267 264 264 263 259 255 254 249 243 241 239 239 239 232 227 226 220 222 226 223 220 215 210 210 209 209 210 209 211 212 212 210 206 204 203 202 203 207 209 207 203 197 194 196 194 193 193 191 191 190 191 191 192 197 200 208 211 207 206 207 207 206 206 209 213 217
322 295 296 291 285 283 277 274 267 261 265 260 261 272 278 284 285 273 262 266 271 262 262 278 288 288 284 280 275 271 268 264 264 267 266 261 250 244 240 230 233 239 240 238 232 230 231 225 221 224 224 220 214 212 214 212 210 212 211 210 212 211 209 205 204 204 202 203 207 209 207 206 203 197 198 199 195 193 192 193 194 192 193 201 206 207 210 210 207 207 208 207 205 204 208 212 214
302 296 297 286 281 280 272 268 262 256 259 247 251 273 280 276 261 251 258 265 268 265 268 280 286 287 287 284 280 275 271 269 272 273 270 265 259 251 242 231 232 240 242 241 240 236 232 227 223 224 224 221 217 214 217 216 211 212 212 208 209 209 206 205 205 205 205 205 208 209 209 210 209 202 202 206 201 196 196 199 200 199 202 209 211 211 212 209 204 206 207 205 203 204 208 209 210
281 289 290 285 284 280 272 267 257 239 226 187 236 276 279 271 253 251 261 273 281 279 280 284 286 287 287 285 283 279 278 281 281 279 277 274 271 266 258 252 247 248 250 249 247 242 236 229 225 224 223 222 222 217 216 219 214 210 212 209 210 210 206 207 206 205 205 204 208 214 216 215 212 209 208 210 207 202 203 207 207 207 209 212 214 213 213 209 204 206 207 204 204 205 207 208 205
275 279 274 285 289 282 275 260 201 208 187 150 204 278 290 286 286 288 303 331 311 296 290 289 289 289 285 283 283 283 285 287 284 284 286 285 282 278 272 270 271 269 266 260 249 242 238 235 229 226 222 221 224 220 215 217 214 209 211 211 211 210 207 209 208 208 207 206 213 222 222 218 215 213 212 212 211 208 209 211 212 212 212 214 215 215 214 211 206 208 208 205 206 205 207 208 203
271 276 259 267 274 282 287 199 160 205 171 158 209 265 284 288 297 306 321 324 304 296 290 289 291 289 283 282 285 289 290 291 292 293 295 294 291 290 288 286 290 291 282 269 254 245 240 236 235 233 229 226 226 223 216 215 214 211 210 211 210 209 209 210 209 210 210 210 219 225 224 220 218 216 214 215 214 213 213 214 215 215 214 214 216 215 214 211 209 211 210 206 206 204 206 206 198
258 269 263 254 257 281 290 206 186 227 189 171 206 262 273 283 298 302 307 304 297 291 286 289 292 289 287 289 292 293 294 299 301 304 313 318 317 317 314 309 309 308 301 288 270 254 245 238 238 240 237 233 230 227 222 217 215 213 212 213 212 210 211 211 211 212 212 213 221 227 226 222 220 218 217 219 218 216 216 217 218 217 216 216 216 216 214 211 209 210 210 206 204 199 201 200 191
246 246 259 266 272 285 291 276 229 223 167 185 210 258 278 284 297 296 297 294 288 283 283 289 291 289 291 297 298 298 302 309 317 339 355 355 353 349 341 337 334 328 324 314 295 273 261 248 239 240 239 234 229 227 225 219 215 213 213 215 213 212 215 214 213 214 213 217 223 226 227 224 222 220 220 221 221 219 219 219 220 219 219 218 217 216 213 210 208 208 207 204 202 198 197 196 184
264 251 254 263 272 285 291 299 287 164 173 212 222 244 265 274 284 288 289 284 281 280 282 287 287 285 291 299 304 308 316 334 1 16 13 11 9 3 356 357 356 350 346 338 326 303 285 274 247 240 240 232 223 222 221 218 216 214 213 214 213 213 217 217 214 214 214 218 223 225 227 226 224 222 221 222 222 222 222 221 221 221 221 218 216 216 212 208 206 207 205 202 201 198 197 194 183
283 281 280 279 280 291 291 289 291 220 237 254 253 256 268 274 274 282 285 282 282 281 281 282 281 283 293 304 315 325 348 13 26 26 21 18 14 8 5 6 7 5 3 0 355 342 317 302 273 248 245 232 221 218 216 213 214 215 214 214 213 213 216 216 213 214 215 216 220 224 228 228 226 222 221 223 222 222 223 222 222 223 222 218 215 214 210 205 204 205 204 201 198 197 198 192 181
282 287 287 288 286 285 282 280 289 298 284 276 277 278 280 279 277 280 280 282 288 283 277 276 277 283 296 314 341 4 27 34 28 27 25 22 17 12 12 12 13 15 15 12 9 3 350 330 307 276 256 236 221 214 210 207 209 213 214 214 215 215 215 214 213 214 216 216 218 224 228 229 227 223 222 222 222 222 223 223 223 224 223 218 214 213 209 205 204 203 203 201 194 190 189 184 182
281 284 278 277 278 276 274 278 288 1 300 280 286 289 288 284 279 274 274 283 287 279 273 273 279 291 314 351 28 38 43 38 28 28 26 22 19 16 17 16 17 19 19 17 15 10 5 355 339 318 291 248 226 217 211 208 209 211 212 215 218 218 215 215 218 219 219 218 220 225 228 229 227 224 223 222 223 222 222 224 224 225 223 218 216 215 211 207 207 204 202 201 196 189 181 178 183
277 275 274 273 272 271 272 279 286 65 273 282 293 294 295 293 281 271 272 279 277 275 281 286 299 323 1 35 50 49 44 38 31 28 25 23 22 19 19 20 19 18 17 18 19 16 13 10 3 349 335 290 252 237 228 221 219 218 219 221 221 220 218 216 220 223 222 221 224 226 228 228 228 226 225 223 223 222 221 223 225 226 224 220 218 216 213 210 207 204 201 199 198 194 187 182 183
271 266 269 269 267 275 278 276 278 108 238 289 302 299 297 289 281 278 275 271 269 282 311 327 342 17 49 51 53 48 39 35 29 25 22 22 23 22 22 22 21 17 16 19 20 20 20 17 11 3 356 337 305 273 250 245 239 231 230 232 222 215 216 213 213 215 213 212 222 231 232 231 229 228 227 225 223 223 223 222 225 228 225 221 219 216 214 212 209 206 204 200 196 193 192 189 187
256 253 261 263 266 277 283 277 114 145 266 286 298 293 281 274 273 271 258 257 264 276 13 35 48 64 70 62 54 47 38 30 24 21 18 20 25 26 24 22 21 19 19 21 21 20 20 18 15 12 10 4 345 322 290 278 262 226 215 228 222 210 217 212 211 217 220 221 226 234 237 235 233 231 230 228 226 225 224 224 225 228 226 223 220 217 215 214 212 209 207 204 196 189 188 192 193
249 245 249 258 269 276 283 297 320 301 279 267 286 287 275 272 268 241 210 251 271 189 100 77 71 68 73 71 62 54 45 34 25 20 14 18 26 26 24 22 21 23 22 22 22 21 20 18 18 18 22 21 9 353 332 309 286 249 211 225 231 229 237 235 227 229 230 231 233 236 238 238 236 235 233 232 230 229 227 225 225 227 227 224 222 220 218 217 216 212 209 207 202 196 190 191 195
263 250 247 260 276 284 289 300 314 305 281 175 305 307 298 321 282 247 211 283 283 130 97 80 70 55 56 64 63 60 51 42 32 22 15 21 30 28 26 24 22 24 22 21 22 23 23 22 20 22 26 25 18 9 356 336 312 298 279 259 262 259 256 251 246 244 235 233 234 233 236 237 237 237 235 234 233 231 229 227 226 227 228 226 223 221 221 220 218 215 212 208 207 206 198 190 193
270 276 288 276 279 284 289 297 299 288 283 259 314 302 288 286 276 257 239 270 262 125 94 80 74 62 58 56 55 55 49 46 37 26 21 27 35 33 29 26 24 23 20 20 23 24 26 25 24 25 26 24 18 15 10 0 341 320 314 314 311 307 298 295 290 275 257 248 237 226 227 233 239 239 235 233 233 233 232 228 227 228 228 228 225 221 220 222 221 218 215 212 211 210 205 197 195
264 31 3 311 284 282 283 285 272 269 291 283 237 240 267 280 279 251 226 248 236 129 95 80 77 73 74 65 59 54 45 43 37 29 26 31 39 37 33 30 27 25 21 21 23 24 26 27 27 28 28 26 20 17 17 12 0 343 343 349 338 328 319 315 320 315 288 266 247 232 227 231 243 244 236 232 234 234 233 230 229 229 228 227 226 223 221 223 224 221 218 216 214 213 210 206 202
280 64 344 326 299 282 270 271 273 275 290 281 218 205 251 279 279 221 211 239 216 134 102 93 92 75 69 65 62 59 49 44 38 31 28 34 40 37 34 32 28 27 24 25 26 24 27 28 28 30 29 27 25 22 22 18 7 355 4 14 1 346 335 325 322 320 309 286 259 245 238 236 243 246 241 236 235 236 235 234 231 230 229 228 226 225 223 224 225 223 221 218 216 215 214 213 210
91 99 234 247 247 252 245 253 277 279 269 268 221 190 234 287 260 195 200 233 201 136 108 111 112 90 73 64 60 59 54 48 38 32 32 37 40 36 33 33 29 28 25 26 29 28 29 29 29 31 30 28 27 26 26 22 16 13 21 23 10 354 343 334 327 321 316 304 286 268 253 247 240 239 240 238 238 239 237 236 235 233 232 230 228 227 225 224 224 224 224 222 219 218 217 218 216
122 214 266 271 254 248 246 242 262 268 257 262 220 191 214 283 239 194 187 213 182 134 122 126 113 96 82 65 60 57 54 52 40 35 38 39 40 35 32 32 30 28 26 27 29 29 30 30 31 32 31 30 29 28 27 26 25 27 29 25 15 3 352 342 334 326 323 315 304 294 277 263 247 239 241 240 243 246 241 236 237 236 234 231 229 230 228 225 225 226 226 224 222 220 220 220 220
206 247 294 302 278 244 243 227 195 246 268 280 197 186 212 246 221 202 137 111 110 112 129 132 116 103 89 70 62 58 52 50 42 38 39 37 36 33 31 31 29 27 27 27 27 28 30 30 31 33 31 30 30 29 29 29 29 30 30 27 19 9 358 349 340 332 329 323 316 309 299 286 268 252 243 239 247 255 249 240 238 236 233 229 229 232 232 229 229 229 228 226 224 222 222 222 222
206 244 263 284 287 262 257 250 225 252 268 96 140 190 226 245 248 242 165 108 87 85 106 121 117 106 95 88 77 66 58 50 44 40 38 34 31 30 28 28 27 26 28 27 26 28 30 29 30 32 31 29 29 29 29 30 31 30 29 26 20 12 3 356 345 337 334 328 323 318 312 303 293 279 259 248 257 263 258 250 245 240 234 232 233 236 235 232 230 231 230 228 226 225 223 223 223
190 217 230 243 276 276 272 272 265 268 262 117 137 223 241 258 256 230 152 104 94 91 92 102 107 104 103 99 82 69 61 50 45 41 38 35 30 28 27 27 26 26 27 27 27 28 30 29 30 31 29 27 29 29 29 31 31 30 30 27 22 15 6 358 350 343 338 332 327 321 316 311 305 297 285 272 266 267 266 261 256 249 243 240 239 239 238 235 233 232 232 230 229 228 226 226 226
202 214 238 246 263 269 273 278 274 279 290 293 239 205 242 273 291 119 110 100 98 97 95 97 98 101 100 88 73 65 59 50 47 44 40 38 33 29 28 27 27 26 25 26 27 27 28 28 28 30 29 26 27 28 29 29 29 29 30 28 25 20 13 6 357 347 338 331 327 320 313 310 306 301 297 291 276 267 271 270 262 256 251 247 245 243 241 238 234 233 233 232 232 232 231 230 229
216 175 232 251 265 266 270 277 276 285 293 279 244 227 263 268 119 113 110 103 97 93 97 98 94 93 87 75 67 61 57 52 48 45 42 39 35 33 30 27 26 25 25 25 24 24 24 24 25 27 27 25 25 26 27 28 30 30 31 30 28 24 21 15 6 359 352 340 330 320 313 308 306 301 297 295 284 273 278 277 269 263 258 253 249 247 244 240 238 237 235 235 234 234 233 233 232
104 151 228 269 304 284 277 276 274 275 275 270 256 255 265 260 162 124 113 100 98 100 98 95 91 88 79 71 66 59 56 53 48 47 44 41 37 34 32 29 26 24 23 25 23 22 22 21 21 22 23 23 23 23 24 24 26 27 27 28 28 26 24 19 10 5 1 355 345 332 321 314 307 303 298 293 286 281 284 282 275 269 263 258 254 249 247 245 243 241 238 236 236 236 234 234 234
190 207 281 2 303 255 264 268 270 267 265 264 262 266 270 272 254 135 130 123 114 113 105 99 98 91 82 77 69 61 57 50 47 46 41 40 37 33 32 30 28 26 24 24 24 23 23 22 21 21 21 21 20 20 20 19 19 20 20 21 22 23 23 21 16 9 4 3 358 347 336 328 319 312 305 296 289 288 289 283 277 274 268 263 259 254 251 249 245 242 241 239 238 237 236 236 235
256 276 7 353 258 249 246 251 258 262 264 265 262 267 270 265 271 254 174 153 134 128 121 111 104 95 91 90 80 67 62 50 42 40 33 31 29 25 25 23 23 23 22 22 23 23 25 24 23 23 22 21 19 18 19 19 19 19 19 20 20 20 21 20 18 14 10 9 5 359 353 345 335 328 320 309 299 294 292 286 279 277 273 267 264 259 256 252 246 243 242 241 239 238 238 239 237
267 301 269 226 253 271 262 254 259 260 265 271 267 265 263 264 298 335 115 138 140 143 133 118 106 100 95 94 90 75 66 54 41 40 32 25 22 17 17 14 12 14 13 15 17 18 19 19 19 21 21 21 22 22 22 22 22 21 20 21 21 20 19 18 17 15 13 11 8 5 1 356 351 345 336 325 312 302 297 292 283 278 276 272 267 263 259 254 248 246 243 240 239 238 237 240 240
226 233 227 223 221 252 268 258 248 254 264 271 271 265 259 284 357 29 81 112 131 139 130 124 116 111 104 97 96 86 76 65 52 49 39 30 25 21 20 13 8 10 9 9 12 13 13 10 11 13 14 17 19 20 23 23 22 23 22 19 19 19 18 17 16 15 14 11 10 8 4 0 359 356 351 342 329 317 309 301 290 281 277 275 271 265 261 256 251 250 247 243 241 239 237 239 240
268 257 244 248 254 258 268 257 236 237 256 261 268 269 264 336 23 41 70 81 94 109 118 121 121 121 116 103 95 84 74 63 50 45 36 30 24 21 23 20 21 22 16 13 16 16 13 8 5 5 5 7 7 9 13 14 15 19 20 18 17 16 16 16 15 14 13 11 10 9 8 7 3 359 357 352 342 331 322 312 301 289 281 278 275 269 264 259 254 253 251 248 245 241 239 239 239
Height
803 804 802 803 801 802 800 798 810 805 803 811 800 799 801 797 798 797 796 795 798 797 795 796 794 795 797 797 797 796 794 795 795 798 800 789 782 784 784 785 786 787 789 790 791 792 795 797 798 800 801 803 804 806 807 808 809 810 811 811 812 814 814 816 816 817 818 819 820 820 821 822 822 823 823 823 824 824 824 824 825 826 826 827 827 827 827 828 828 828 828 828 829 828 828 828 828
803 804 802 804 801 804 801 799 815 808 804 810 798 800 801 795 798 799 800 799 800 797 794 795 794 795 794 794 795 795 792 785 783 785 783 781 782 783 783 784 785 787 789 790 791 792 794 796 798 800 801 803 804 806 807 808 809 810 810 811 812 813 814 815 816 817 818 819 820 820 821 821 822 823 823 824 824 824 824 825 825 826 826 827 827 827 827 828 828 828 828 828 828 828 828 828 828
804 804 802 804 800 801 801 803 816 813 812 811 800 799 798 798 800 798 797 796 796 794 795 795 795 794 794 797 794 795 791 780 779 779 778 779 781 782 783 783 784 787 788 790 791 792 794 795 797 799 801 803 804 806 807 808 809 810 810 811 812 813 814 815 816 817 818 819 819 820 821 821 822 822 823 823 824 824 825 825 825 826 826 827 827 827 828 828 828 828 828 828 828 828 828 828 828
803 804 803 802 802 802 804 810 812 813 815 808 803 799 796 801 799 796 794 793 793 793 796 795 796 792 793 798 791 790 788 779 778 779 778 779 781 782 782 782 784 786 788 789 791 792 793 794 796 798 801 803 804 806 807 808 809 810 810 811 812 813 814 815 816 816 817 818 819 820 820 821 821 822 823 823 824 824 825 825 825 826 826 827 827 827 828 828 828 828 828 828 828 828 828 828 828
803 804 803 802 806 806 808 812 809 813 812 804 805 798 794 797 795 796 792 791 791 794 795 796 797 790 790 793 789 790 785 779 778 779 780 780 781 782 782 783 784 786 787 788 790 791 792 793 795 797 799 802 803 805 806 808 809 809 810 811 812 813 813 814 815 816 817 818 819 819 820 821 821 822 823 823 824 824 825 825 826 826 826 827 827 827 828 828 828 828 828 828 828 828 828 828 828
803 804 803 802 805 805 811 815 810 809 802 799 805 798 793 793 792 795 792 789 789 793 794 795 796 793 793 787 784 785 780 780 780 778 780 781 781 782 782 783 784 786 786 788 789 791 791 792 794 796 798 800 802 804 805 807 808 809 810 811 812 813 813 814 815 816 817 818 818 819 819 820 821 822 823 823 823 824 825 825 826 826 827 827 827 828 828 828 828 828 828 828 828 828 828 828 828
804 804 803 805 806 807 816 816 809 806 796 795 801 797 794 792 792 794 793 792 792 793 795 795 793 796 795 785 783 779 776 779 778 778 780 781 782 782 783 783 785 786 786 788 789 790 791 791 793 795 797 799 801 802 804 805 807 808 809 810 811 812 813 814 815 816 816 817 818 818 819 820 821 822 822 822 823 824 825 825 826 826 827 827 827 828 828 828 828 829 829 829 829 828 828 828 828
804 805 804 809 812 812 816 812 806 803 796 793 795 795 794 793 793 796 796 795 795 794 795 794 793 799 793 784 787 778 775 778 777 780 780 780 782 782 783 784 785 786 787 788 789 790 790 790 792 793 795 797 799 801 802 804 805 807 808 809 810 811 812 813 814 815 816 817 817 818 819 819 820 821 822 822 823 823 824 825 825 826 827 827 827 828 828 829 829 829 829 829 829 828 828 828 828
804 805 806 812 813 813 814 810 804 798 795 793 793 793 792 792 793 796 797 794 793 793 793 792 793 799 789 784 786 774 774 777 777 779 779 780 781 782 783 783 785 786 787 788 789 790 789 790 791 793 794 796 797 799 801 802 804 805 807 808 809 810 811 812 813 814 815 816 817 817 818 819 820 820 821 821 822 823 824 824 825 826 826 827 827 828 828 829 829 829 829 829 828 828 828 828 828
804 805 808 812 813 815 812 805 800 797 794 793 792 791 791 791 793 796 797 794 792 793 792 791 794 796 789 788 784 773 774 776 777 779 779 780 780 782 782 783 785 785 786 787 788 788 789 789 791 792 793 795 796 797 799 800 802 803 805 806 807 808 810 811 812 813 814 815 816 817 818 818 819 820 820 820 821 822 823 824 825 826 826 826 827 827 828 828 829 829 829 829 828 828 828 828 828
807 806 808 814 815 814 809 803 800 797 792 791 791 790 791 792 795 795 795 794 791 792 791 792 795 792 790 789 781 773 774 776 777 779 778 779 780 781 782 783 784 784 785 785 786 787 788 789 790 792 792 794 795 796 798 799 800 802 803 804 806 807 808 809 810 812 813 814 815 816 817 818 819 819 819 819 821 821 822 823 824 825 826 826 826 827 827 828 828 828 829 828 828 828 828 828 828
811 808 810 817 813 809 806 806 805 799 794 792 792 791 791 793 797 796 795 794 790 790 789 790 791 789 792 788 777 771 773 776 777 778 778 779 779 780 782 783 783 784 785 785 786 786 787 788 789 791 792 794 795 796 797 798 799 800 802 803 804 805 807 808 809 810 811 813 814 815 816 817 818 819 819 819 820 820 821 822 823 824 825 826 826 826 826 827 828 828 828 827 827 827 828 828 828
811 808 812 816 809 807 807 808 805 803 798 791 793 793 793 795 797 795 794 794 791 791 788 785 786 788 793 787 774 769 773 776 776 777 777 778 779 780 781 782 782 783 784 784 785 786 787 788 788 790 791 793 794 796 796 797 798 799 801 801 803 804 805 806 807 809 810 811 813 814 815 816 817 818 818 818 818 819 820 821 822 824 824 825 825 826 826 826 827 827 826 826 827 827 827 827 828
808 806 812 814 808 808 808 808 804 805 801 789 792 793 794 795 794 794 795 797 792 789 788 783 785 791 791 784 776 771 775 776 775 777 776 778 778 778 780 780 781 782 783 783 784 785 786 787 788 789 790 792 794 795 796 797 797 798 799 800 801 802 804 805 806 808 809 810 811 813 814 815 816 816 817 817 818 818 819 820 821 823 824 825 825 825 826 826 826 826 826 826 826 827 827 827 827
807 805 811 814 811 809 806 806 803 807 801 788 792 793 794 793 790 794 794 797 792 784 786 784 785 792 787 783 780 773 775 776 775 776 776 777 777 778 778 778 779 779 781 781 782 783 784 786 787 788 789 790 792 793 794 795 796 797 798 799 800 801 802 804 805 806 807 809 810 811 813 813 814 815 816 816 817 817 818 819 821 822 823 824 824 825 825 826 826 825 825 826 826 827 827 827 827
806 806 812 815 813 810 805 803 803 808 798 787 792 792 795 791 788 794 790 792 792 783 786 786 784 787 782 780 778 772 774 774 774 775 775 777 776 777 777 777 778 778 779 779 780 781 782 784 785 787 787 789 790 791 793 794 795 795 797 798 799 800 801 802 804 805 806 808 809 810 811 812 813 813 814 815 815 816 817 818 819 821 822 823 824 824 825 825 825 825 825 826 826 826 826 827 827
807 810 816 816 812 808 803 800 802 803 795 789 791 791 796 793 788 791 787 790 792 785 784 783 780 779 777 775 772 771 773 772 773 774 775 776 775 776 776 776 777 777 777 777 778 779 780 781 782 784 785 786 788 789 791 792 793 793 795 796 798 799 800 801 802 804 805 806 807 808 809 810 811 812 812 814 814 815 816 817 818 819 821 822 823 823 824 824 824 824 825 825 826 826 826 827 827
810 813 816 814 807 801 796 795 794 794 794 792 789 789 794 795 791 788 789 791 789 786 782 778 776 774 772 771 771 771 771 771 772 773 773 774 774 773 773 773 774 774 774 774 775 776 778 779 780 782 782 784 785 787 788 790 791 792 793 795 796 797 798 800 801 802 803 805 806 806 808 809 810 810 811 812 812 813 814 815 817 818 820 820 821 822 823 823 823 824 824 825 826 826 826 827 827
811 810 812 810 802 794 789 790 790 790 793 791 788 788 791 793 790 788 792 792 787 786 781 776 775 771 768 767 768 769 769 770 770 771 771 770 771 770 770 770 770 771 771 771 772 773 775 776 777 779 780 781 783 785 786 788 789 789 791 793 794 795 797 798 799 800 801 803 804 804 806 808 808 809 809 810 811 812 812 814 815 817 818 819 820 821 822 823 823 823 824 825 825 826 826 827 827
807 807 812 804 795 791 786 788 790 789 789 791 791 789 790 790 788 789 792 791 789 787 781 776 774 770 767 764 764 765 766 767 768 768 768 767 767 767 767 767 767 767 768 768 769 770 772 773 775 776 778 780 781 782 784 785 787 788 789 790 792 793 794 796 797 798 800 801 802 802 805 806 807 808 808 808 809 811 811 812 814 816 817 818 819 820 821 822 822 822 823 825 825 826 826 826 827
803 804 808 797 791 793 789 787 787 787 788 791 793 792 792 788 787 789 791 793 790 783 776 772 770 768 766 763 762 763 763 764 766 766 765 764 764 764 764 764 764 765 765 766 766 767 768 770 771 773 775 777 778 780 781 782 784 785 786 787 789 790 791 793 794 796 797 799 800 801 803 805 805 806 806 806 808 810 810 811 813 814 816 816 817 819 820 820 821 822 823 824 825 825 826 826 827
803 801 800 793 791 794 789 785 787 788 791 793 794 794 790 786 788 788 790 793 787 777 771 767 766 765 765 763 762 762 762 762 763 762 762 761 761 761 761 761 762 762 763 764 764 764 765 766 768 770 772 773 775 776 778 780 781 783 783 785 786 787 788 789 791 792 794 796 798 799 801 803 804 805 804 804 807 808 809 810 811 813 815 815 816 818 819 819 820 821 822 823 824 825 825 826 826
804 799 794 792 791 792 788 786 789 791 794 795 793 791 787 787 789 785 786 786 778 772 768 765 763 762 762 762 761 761 761 761 760 759 758 758 757 757 758 759 759 760 761 761 761 762 762 763 764 766 767 769 771 773 776 777 779 780 781 782 783 784 785 786 788 789 791 793 795 797 799 800 802 802 802 803 805 807 809 809 811 812 813 814 814 817 818 818 819 820 821 823 823 824 825 825 826
805 801 794 792 790 791 789 787 789 792 794 793 790 789 788 790 789 783 781 777 771 768 765 763 762 760 760 760 760 759 758 758 756 755 755 755 754 754 756 757 757 758 759 759 759 759 759 759 760 762 763 765 766 769 771 773 775 776 777 779 780 781 782 783 784 786 788 790 792 794 796 798 799 799 800 801 803 806 807 808 810 811 812 813 814 816 816 816 818 819 820 821 822 823 824 825 826
802 800 794 791 790 789 789 788 789 790 792 790 790 790 787 785 784 781 778 772 767 764 761 760 760 759 759 758 758 757 755 754 752 751 752 752 752 752 754 755 756 756 756 755 755 755 755 755 756 757 759 760 762 765 767 769 771 772 773 775 776 777 778 779 781 783 785 787 789 791 793 795 795 796 797 799 801 804 806 807 809 810 811 812 813 814 815 815 817 818 819 820 822 823 824 824 825
797 797 795 793 792 789 789 789 788 790 789 789 791 788 783 780 780 779 773 767 763 760 760 759 758 759 757 756 755 753 752 750 748 748 748 749 750 751 751 752 753 752 752 751 751 751 751 753 753 753 754 756 759 761 763 765 766 768 769 770 772 774 775 777 779 780 782 784 786 788 790 791 791 793 795 797 799 801 803 805 806 808 809 810 811 813 813 815 816 817 818 819 821 822 823 823 824
796 797 797 795 794 789 788 788 786 787 786 786 789 786 780 777 780 779 768 761 759 759 760 758 758 757 754 753 751 749 748 746 745 745 745 746 747 747 747 748 748 747 747 746 747 747 748 749 750 751 752 753 755 756 758 760 762 764 765 767 769 771 773 775 776 777 779 781 783 786 787 787 788 790 792 794 796 798 800 802 804 805 807 808 809 810 812 813 815 817 818 819 819 820 821 822 824
797 799 798 795 792 787 785 784 783 784 785 784 786 786 779 776 779 775 764 758 757 758 760 758 757 755 751 750 747 745 743 742 743 743 743 743 743 743 743 743 743 742 742 742 743 745 745 746 747 748 749 750 752 752 754 756 758 760 762 764 766 768 770 772 773 775 776 778 780 782 782 783 785 787 789 790 793 795 797 799 801 803 804 805 806 808 810 812 814 815 816 817 818 819 820 821 823
799 800 801 795 789 787 781 777 777 780 784 782 786 790 780 773 772 764 757 755 755 757 759 757 755 752 749 747 744 743 741 741 741 741 740 740 740 740 740 740 740 739 739 740 741 742 743 743 744 745 746 747 747 749 751 752 755 757 759 761 764 766 768 769 771 772 773 775 778 778 778 780 782 784 786 787 789 791 793 795 797 800 801 803 804 806 808 810 812 813 814 816 817 818 819 820 822
801 798 800 798 793 787 774 771 776 778 782 781 788 796 782 767 763 757 754 755 756 759 757 754 752 750 747 744 742 741 740 740 739 738 739 738 738 738 738 738 739 739 739 739 740 740 741 742 743 744 745 746 746 748 750 750 753 755 757 759 762 763 765 766 768 770 771 773 774 773 775 777 779 781 783 784 787 789 790 792 794 796 798 800 801 803 805 808 809 811 813 815 816 817 818 819 821
800 797 797 799 801 789 770 771 779 780 782 780 787 798 785 767 761 756 754 755 758 760 754 750 750 747 745 742 741 740 738 737 737 737 737 737 738 738 738 738 738 739 738 739 738 739 740 740 741 742 743 745 746 748 749 750 752 753 755 757 759 761 762 764 765 767 769 770 771 770 772 775 777 779 781 782 784 786 788 789 791 793 795 797 799 801 803 806 808 809 811 813 815 817 818 819 820
795 801 801 795 795 787 771 770 776 778 781 781 787 794 783 768 761 756 754 755 757 758 751 746 746 744 742 741 740 739 736 735 736 736 736 736 737 738 738 738 738 738 738 738 737 737 738 738 738 739 740 742 743 745 747 749 750 752 754 755 757 759 760 762 764 765 767 768 768 769 770 773 775 778 779 780 782 784 786 787 789 790 792 794 796 799 801 804 806 808 810 811 813 815 817 818 820
792 797 802 794 790 786 777 771 768 773 780 782 785 788 781 771 763 757 756 756 756 755 749 744 744 740 740 740 739 738 737 736 736 736 737 738 739 740 739 739 738 737 737 737 737 737 737 737 737 737 738 740 741 742 744 746 748 749 751 753 755 756 758 759 762 764 765 766 767 767 768 770 773 776 777 779 781 783 784 786 787 788 789 791 794 796 799 801 803 805 808 810 812 814 815 817 819
792 788 792 789 785 785 783 775 768 771 780 782 782 784 781 774 766 759 755 753 753 753 749 744 741 738 738 739 739 738 738 738 739 740 742 743 743 743 742 741 739 738 738 737 736 736 736 737 737 737 738 739 740 741 742 744 745 747 748 750 751 753 754 757 759 761 762 764 765 766 767 768 771 773 775 777 780 782 783 785 786 786 787 789 791 793 796 798 800 802 805 807 810 811 813 815 817
793 789 789 786 782 784 785 779 771 770 775 778 780 780 777 770 764 759 752 747 749 749 745 741 738 736 737 738 738 739 739 742 745 747 748 748 747 747 745 743 741 740 739 738 737 737 737 737 737 737 738 739 740 741 742 743 744 746 747 748 749 750 751 753 756 758 759 761 762 764 765 766 769 772 774 776 778 781 782 784 785 785 786 788 789 791 793 795 797 799 802 804 807 809 811 813 815
789 788 790 791 790 787 782 775 768 768 775 777 778 777 772 768 763 759 750 744 746 746 742 740 737 736 736 737 738 740 743 748 751 752 752 752 751 750 748 746 744 743 741 740 739 738 738 738 738 738 739 739 740 741 742 743 744 745 746 747 747 749 750 751 753 754 756 758 760 762 763 765 768 770 772 774 777 779 781 783 784 784 785 787 788 789 791 792 794 796 798 801 804 807 809 811 812
785 788 792 792 792 788 778 773 767 770 781 778 773 772 770 767 763 756 749 743 744 743 741 739 737 737 737 738 740 744 748 753 755 755 755 755 754 752 750 749 747 745 744 742 741 740 740 739 739 739 740 740 741 741 742 742 743 744 745 746 747 748 749 750 752 753 755 756 758 759 760 763 765 767 770 772 775 777 780 782 783 783 784 786 787 788 789 791 792 795 797 799 801 803 805 807 809
787 791 792 791 790 785 775 770 767 771 783 779 771 772 769 764 758 751 746 744 742 739 738 739 738 738 740 742 746 750 753 755 757 757 757 757 755 754 752 750 749 748 747 745 744 743 742 741 741 741 741 741 742 742 743 743 743 744 744 745 746 747 749 750 751 753 755 756 757 758 759 761 763 765 767 770 773 775 777 779 780 781 783 785 786 788 790 791 792 794 795 797 799 800 801 803 805
791 791 793 794 788 782 775 769 768 775 784 780 773 776 772 761 752 745 743 742 738 735 737 740 742 743 746 750 753 756 757 758 759 760 760 759 757 755 753 752 751 751 750 748 746 745 744 743 743 742 742 743 743 743 744 744 744 744 745 746 746 747 748 749 750 751 753 755 756 757 759 760 761 762 764 767 769 771 774 776 777 779 781 784 785 786 788 789 790 792 793 794 796 798 799 800 801
791 792 794 793 785 785 784 773 772 778 780 779 778 779 773 758 747 741 739 738 735 736 739 742 746 749 753 757 759 761 763 763 764 764 763 762 759 757 755 754 754 753 752 748 747 746 746 746 745 744 744 744 745 745 745 746 745 745 745 746 746 748 748 748 749 750 751 752 753 754 756 758 760 761 763 764 766 769 771 773 774 775 778 781 783 784 786 786 788 789 791 792 793 795 796 797 798
787 787 791 790 783 784 783 775 775 776 775 778 780 779 767 750 746 742 736 735 734 736 740 745 751 755 758 760 762 766 768 769 769 768 768 765 761 759 759 758 756 755 752 749 749 749 749 749 748 747 746 746 746 747 747 747 747 747 746 746 746 748 748 749 750 750 751 751 752 752 753 755 757 759 760 762 764 766 768 770 771 772 774 776 779 782 783 784 785 786 788 790 791 791 792 794 796
786 782 782 783 782 782 781 779 784 787 784 781 782 787 774 750 747 744 736 736 735 735 743 752 758 762 764 764 765 769 770 772 773 773 773 769 764 763 762 761 759 757 755 753 753 752 752 751 750 749 748 748 748 748 748 749 749 750 749 747 747 748 749 749 750 751 751 752 752 752 753 753 755 756 757 759 760 762 764 767 768 769 770 772 775 778 779 780 782 783 785 787 788 789 790 792 793
790 785 781 781 783 785 786 786 792 794 788 778 780 792 784 760 750 742 736 739 736 736 747 757 763 766 769 771 771 773 773 775 776 777 776 771 766 766 765 765 763 760 759 758 756 755 754 753 752 751 751 750 750 750 750 750 751 752 751 749 749 749 750 750 751 751 752 752 753 753 753 754 754 755 756 757 758 759 761 763 764 766 767 769 771 774 776 777 778 779 782 783 785 787 788 788 789
791 789 788 785 784 788 789 791 794 791 785 779 777 784 784 770 753 736 733 739 736 740 755 764 768 769 770 772 774 776 777 778 778 779 778 774 769 769 769 768 766 765 764 761 760 758 757 756 755 754 754 753 753 753 752 751 752 754 752 750 750 751 752 752 752 752 753 753 753 753 754 754 754 755 756 756 757 757 759 760 761 762 764 765 768 770 772 774 775 777 779 781 783 784 785 785 786
789 791 790 786 788 790 789 791 792 787 788 788 778 779 785 773 749 733 735 739 736 745 760 767 770 772 773 775 776 778 779 780 780 781 780 775 771 770 771 771 770 769 767 765 764 762 761 760 758 757 757 756 756 755 754 754 756 757 753 750 750 752 753 753 753 754 754 753 753 753 754 754 754 754 755 755 756 756 757 758 759 760 761 762 764 765 767 770 772 774 775 777 779 780 782 783 784
790 792 790 788 790 788 788 791 789 788 794 791 777 776 782 770 748 738 744 743 736 745 761 766 769 773 776 778 779 780 780 781 783 783 781 775 773 775 775 775 774 773 771 770 768 766 764 763 761 760 759 759 758 757 757 758 759 758 753 750 751 753 754 754 755 755 755 754 754 753 753 753 754 754 754 755 755 755 756 756 757 758 759 760 762 762 764 766 767 769 771 773 776 778 780 781 781
793 791 788 788 785 782 786 786 786 794 793 778 766 766 773 771 752 738 743 742 733 741 759 767 769 773 777 780 782 782 782 783 785 785 781 777 777 779 779 779 778 776 775 773 770 769 768 766 765 764 763 762 761 760 761 762 761 757 752 751 752 754 755 755 756 756 756 755 755 754 753 753 753 753 753 754 754 754 755 755 756 757 757 758 760 760 761 763 764 765 767 769 772 774 776 778 779
793 790 789 790 783 780 786 785 790 799 786 764 756 758 766 771 755 736 736 737 733 740 754 764 771 775 778 782 784 784 783 785 786 784 781 780 781 782 782 782 780 779 778 776 774 772 771 770 768 767 766 765 764 763 764 763 760 755 752 752 754 755 756 756 756 757 756 756 756 755 754 753 753 753 752 752 753 753 754 755 755 755 756 756 757 757 758 760 762 763 764 765 767 769 772 774 775
792 789 791 797 792 787 790 787 787 788 775 764 761 761 766 763 747 734 733 740 744 746 752 762 770 774 779 784 786 784 784 786 785 783 783 784 785 784 784 784 783 782 780 779 777 775 774 773 771 770 768 767 766 765 764 762 758 755 753 754 755 756 756 757 757 757 757 756 756 756 755 754 753 753 752 752 752 752 753 754 754 754 754 754 755 755 756 758 759 760 761 762 764 765 767 769 770
790 788 789 796 796 797 797 787 781 775 767 767 768 769 770 759 740 731 735 748 755 755 760 765 770 775 780 783 783 783 784 785 785 785 786 787 787 787 787 786 786 785 783 782 780 778 777 775 774 772 770 769 767 766 764 762 760 758 756 756 757 757 757 757 757 757 757 756 756 756 755 754 754 753 753 752 751 751 751 752 752 753 753 753 753 753 754 755 756 757 758 760 761 762 763 765 766
782 777 781 789 789 794 796 787 783 778 769 770 776 776 767 754 744 741 746 756 759 761 767 770 772 777 780 781 781 782 784 785 786 788 788 788 789 789 789 788 787 786 785 784 782 781 779 778 776 774 772 771 769 767 766 764 763 761 760 759 759 759 758 758 758 757 757 756 756 755 755 755 754 753 753 752 751 751 750 750 751 751 751 751 751 751 752 752 753 754 755 756 758 760 762 762 763
778 775 782 787 781 781 787 783 780 781 778 774 773 767 749 738 743 749 755 760 762 766 770 772 776 778 779 781 782 784 785 787 788 789 789 789 790 790 790 790 789 788 787 785 784 783 782 780 779 777 775 773 771 770 768 767 766 765 763 762 761 761 760 759 759 758 757 756 755 755 755 754 753 753 752 752 751 750 749 749 750 750 750 750 750 750 750 750 751 752 752 753 754 756 758 759 760
782 784 785 782 775 776 786 786 777 780 785 773 760 756 743 735 741 750 757 761 765 770 772 774 778 779 781 785 786 787 788 789 789 790 790 790 790 790 790 790 789 789 788 787 786 785 784 783 781 780 778 776 774 772 771 770 768 767 766 765 764 763 762 761 760 759 758 757 756 755 754 753 752 752 751 751 750 749 748 748 748 748 748 748 748 748 748 749 749 749 749 750 751 752 754 754 756
783 786 781 776 777 778 784 790 786 785 785 770 756 755 750 745 747 751 756 761 767 772 774 777 780 781 784 787 789 790 790 790 791 790 791 790 790 791 791 790 790 789 789 789 788 787 786 786 784 783 781 779 777 775 774 772 770 769 768 767 766 765 764 763 763 761 760 758 757 756 755 754 752 751 749 749 748 747 746 746 746 746 747 747 747 747 746 746 747 747 746 747 748 750 751 750 752
781 782 780 781 787 786 783 790 795 793 787 773 761 757 753 748 744 742 748 758 767 772 774 778 781 783 786 788 790 791 791 792 792 791 792 791 791 792 791 791 791 790 790 789 789 788 788 787 786 786 784 782 781 778 776 775 773 771 770 769 768 767 766 765 764 763 761 760 758 757 756 754 752 749 748 747 747 746 745 744 744 744 745 745 745 745 745 744 744 743 743 744 745 747 748 747 748
784 785 782 781 786 787 782 784 789 791 790 782 771 764 754 744 739 738 744 754 764 770 774 780 784 786 788 789 791 792 792 793 793 793 793 792 793 793 792 792 792 791 791 790 790 789 788 788 787 787 786 784 783 780 778 777 775 773 772 770 769 767 767 766 765 764 763 761 759 758 756 754 752 749 747 746 746 745 744 743 743 743 743 743 743 743 743 743 742 741 740 741 741 743 744 744 745
781 786 786 784 784 784 783 781 778 781 788 785 781 774 756 744 747 750 751 757 764 769 776 783 786 789 791 791 792 792 793 793 793 793 793 793 793 793 792 793 792 792 792 791 790 789 789 788 787 787 786 785 783 782 780 779 777 775 773 771 770 768 767 766 766 765 763 762 760 758 756 754 752 749 747 746 745 744 743 742 742 742 741 741 741 741 741 741 740 739 739 739 739 739 740 740 742
771 776 778 779 779 782 791 790 776 774 781 779 780 776 758 753 761 762 762 768 771 775 781 786 789 791 792 793 793 793 793 793 793 793 793 793 793 793 793 792 792 792 791 791 790 790 789 789 788 787 786 784 783 782 781 780 778 776 774 772 770 768 767 766 765 764 763 762 760 758 756 754 751 749 747 745 745 743 742 741 741 741 740 740 739 739 739 739 739 738 737 737 737 737 737 736 737